SKN6530 SABE-SUMU

Flight info

Callsign SKN6530
Flight time 0h 29m
Altitude 15000
Route DORVO A305 TOKAM
Aircraft A320/M-V/N

Departure

Time 2026-05-08 02:03
Airport Aeroparque Jorge Newbery (SABE)

Arrival

Time 2026-05-08 02:32
Airport Carrasco General Cesáreo L. Berisso International Airport (SUMU)
Time Latitude Longitude Altitude Speed Heading
2026-05-08 01:41 -34.55840 -58.41371 27 ft 0 kts 207°
2026-05-08 01:52 -34.55832 -58.41366 27 ft 2 kts 206°
2026-05-08 01:52 -34.55819 -58.41354 27 ft 2 kts 238°
2026-05-08 01:53 -34.55813 -58.41335 27 ft 2 kts 268°
2026-05-08 01:53 -34.55816 -58.41316 27 ft 1 kts 298°
2026-05-08 01:53 -34.55820 -58.41309 27 ft 1 kts 307°
2026-05-08 01:53 -34.55822 -58.41306 27 ft 0 kts 305°
2026-05-08 01:54 -34.55821 -58.41306 26 ft 0 kts 305°
2026-05-08 01:54 -34.55822 -58.41306 26 ft 0 kts 305°
2026-05-08 01:55 -34.55821 -58.41306 26 ft 0 kts 305°
2026-05-08 01:56 -34.55822 -58.41306 26 ft 0 kts 305°
2026-05-08 01:56 -34.55821 -58.41307 27 ft 0 kts 304°
2026-05-08 01:56 -34.55815 -58.41317 27 ft 4 kts 304°
2026-05-08 01:57 -34.55789 -58.41363 26 ft 8 kts 303°
2026-05-08 01:57 -34.55757 -58.41424 26 ft 9 kts 301°
2026-05-08 01:57 -34.55735 -58.41471 26 ft 3 kts 298°
2026-05-08 01:57 -34.55724 -58.41502 27 ft 4 kts 287°
2026-05-08 01:58 -34.55723 -58.41540 26 ft 4 kts 237°
2026-05-08 01:58 -34.55748 -58.41572 26 ft 5 kts 219°
2026-05-08 01:58 -34.55782 -58.41582 26 ft 5 kts 169°
2026-05-08 01:58 -34.55815 -58.41547 26 ft 9 kts 124°
2026-05-08 01:59 -34.55853 -58.41462 27 ft 13 kts 115°
2026-05-08 01:59 -34.55901 -58.41342 26 ft 16 kts 121°
2026-05-08 01:59 -34.55961 -58.41226 26 ft 16 kts 125°
2026-05-08 01:59 -34.56032 -58.41115 26 ft 16 kts 129°
2026-05-08 02:00 -34.56104 -58.41000 27 ft 16 kts 125°
2026-05-08 02:00 -34.56162 -58.40882 27 ft 14 kts 84°
2026-05-08 02:00 -34.56176 -58.40820 26 ft 8 kts 119°
2026-05-08 02:00 -34.56206 -58.40756 26 ft 9 kts 121°
2026-05-08 02:01 -34.56245 -58.40684 26 ft 10 kts 123°
2026-05-08 02:01 -34.56289 -58.40606 26 ft 11 kts 127°
2026-05-08 02:01 -34.56346 -58.40532 26 ft 12 kts 137°
2026-05-08 02:01 -34.56408 -58.40464 26 ft 11 kts 139°
2026-05-08 02:02 -34.56469 -58.40399 26 ft 11 kts 137°
2026-05-08 02:02 -34.56528 -58.40412 26 ft 9 kts 230°
2026-05-08 02:02 -34.56541 -58.40434 26 ft 9 kts 237°
2026-05-08 02:02 -34.56531 -58.40483 26 ft 0 kts 301°
2026-05-08 02:03 -34.56496 -58.40550 27 ft 39 kts 302°
2026-05-08 02:03 -34.56200 -58.41096 27 ft 113 kts 303°
2026-05-08 02:03 -34.55666 -58.42016 378 ft 137 kts 296°
2026-05-08 02:03 -34.55258 -58.42901 1228 ft 116 kts 289°
2026-05-08 02:04 -34.54849 -58.43824 1655 ft 142 kts 308°
2026-05-08 02:04 -34.53852 -58.44248 2177 ft 170 kts 356°
2026-05-08 02:04 -34.52693 -58.43687 2599 ft 195 kts 27°
2026-05-08 02:04 -34.51512 -58.42733 3070 ft 212 kts 31°
2026-05-08 02:05 -34.50312 -58.41594 3548 ft 231 kts 50°
2026-05-08 02:05 -34.49592 -58.39807 4107 ft 242 kts 85°
2026-05-08 02:05 -34.49723 -58.37817 4720 ft 245 kts 114°
2026-05-08 02:05 -34.50420 -58.35902 5321 ft 257 kts 120°
2026-05-08 02:06 -34.51195 -58.33860 5863 ft 276 kts 116°
2026-05-08 02:06 -34.51886 -58.31652 6534 ft 288 kts 112°
2026-05-08 02:06 -34.52498 -58.29339 7419 ft 292 kts 109°
2026-05-08 02:06 -34.53070 -58.26976 8290 ft 295 kts 108°
2026-05-08 02:07 -34.53627 -58.24593 9105 ft 299 kts 107°
2026-05-08 02:07 -34.54203 -58.22196 9874 ft 303 kts 108°
2026-05-08 02:07 -34.54824 -58.19724 10480 ft 315 kts 108°
2026-05-08 02:07 -34.55489 -58.17094 10845 ft 333 kts 108°
2026-05-08 02:08 -34.56182 -58.14336 11213 ft 351 kts 108°
2026-05-08 02:08 -34.56910 -58.11431 11537 ft 370 kts 107°
2026-05-08 02:08 -34.57680 -58.08345 11858 ft 387 kts 107°
2026-05-08 02:08 -34.58463 -58.05199 12151 ft 402 kts 107°
2026-05-08 02:09 -34.59285 -58.01892 12619 ft 412 kts 107°
2026-05-08 02:09 -34.60133 -57.98477 13288 ft 416 kts 107°
2026-05-08 02:09 -34.60965 -57.95123 13922 ft 419 kts 107°
2026-05-08 02:09 -34.61816 -57.91688 14414 ft 423 kts 106°
2026-05-08 02:10 -34.62665 -57.88257 14621 ft 426 kts 106°
2026-05-08 02:10 -34.63535 -57.84732 14627 ft 427 kts 106°
2026-05-08 02:10 -34.64395 -57.81235 14627 ft 427 kts 105°
2026-05-08 02:10 -34.65268 -57.77685 14620 ft 427 kts 105°
2026-05-08 02:11 -34.66021 -57.74158 14606 ft 425 kts 97°
2026-05-08 02:11 -34.66178 -57.70527 14618 ft 425 kts 88°
2026-05-08 02:11 -34.66093 -57.66861 14621 ft 424 kts 86°
2026-05-08 02:11 -34.65989 -57.63284 14622 ft 424 kts 87°
2026-05-08 02:12 -34.65937 -57.60904 14618 ft 424 kts 87°
2026-05-08 02:12 -34.65872 -57.56072 14609 ft 425 kts 88°
2026-05-08 02:12 -34.65847 -57.52477 14607 ft 425 kts 88°
2026-05-08 02:12 -34.65831 -57.48845 14604 ft 425 kts 88°
2026-05-08 02:13 -34.65822 -57.45225 14599 ft 425 kts 88°
2026-05-08 02:13 -34.65815 -57.41612 14604 ft 424 kts 88°
2026-05-08 02:13 -34.65811 -57.38047 14594 ft 425 kts 88°
2026-05-08 02:13 -34.65808 -57.34468 14588 ft 426 kts 87°
2026-05-08 02:14 -34.65803 -57.30908 14598 ft 425 kts 87°
2026-05-08 02:14 -34.65796 -57.27302 14596 ft 426 kts 88°
2026-05-08 02:14 -34.65788 -57.23735 14584 ft 424 kts 87°
2026-05-08 02:14 -34.65781 -57.20186 14577 ft 425 kts 87°
2026-05-08 02:15 -34.65772 -57.16594 14583 ft 425 kts 87°
2026-05-08 02:15 -34.65763 -57.12989 14587 ft 427 kts 87°
2026-05-08 02:15 -34.65750 -57.09423 14586 ft 427 kts 88°
2026-05-08 02:15 -34.65738 -57.05786 14587 ft 425 kts 87°
2026-05-08 02:16 -34.65724 -57.02214 14580 ft 426 kts 87°
2026-05-08 02:16 -34.65713 -56.98629 14575 ft 427 kts 87°
2026-05-08 02:16 -34.65698 -56.95066 14530 ft 421 kts 86°
2026-05-08 02:16 -34.65680 -56.91512 14004 ft 417 kts 87°
2026-05-08 02:17 -34.65656 -56.88003 13218 ft 418 kts 87°
2026-05-08 02:17 -34.65638 -56.84503 12616 ft 414 kts 87°
2026-05-08 02:17 -34.65624 -56.81044 12062 ft 408 kts 87°
2026-05-08 02:17 -34.65606 -56.77667 11502 ft 404 kts 87°
2026-05-08 02:18 -34.65584 -56.74292 10890 ft 400 kts 87°
2026-05-08 02:18 -34.65564 -56.70938 10290 ft 396 kts 88°
2026-05-08 02:18 -34.65543 -56.67636 9853 ft 387 kts 87°
2026-05-08 02:18 -34.65521 -56.64417 9620 ft 373 kts 87°
2026-05-08 02:19 -34.65502 -56.61355 9398 ft 360 kts 87°
2026-05-08 02:19 -34.65482 -56.58353 9180 ft 348 kts 87°
2026-05-08 02:19 -34.65459 -56.55506 8982 ft 337 kts 87°
2026-05-08 02:19 -34.65435 -56.52694 8787 ft 326 kts 87°
2026-05-08 02:20 -34.65411 -56.49981 8590 ft 316 kts 88°
2026-05-08 02:20 -34.65387 -56.47370 8416 ft 306 kts 88°
2026-05-08 02:20 -34.65367 -56.44826 8207 ft 298 kts 87°
2026-05-08 02:20 -34.65344 -56.42308 7864 ft 296 kts 87°
2026-05-08 02:21 -34.65320 -56.39825 7462 ft 296 kts 88°
2026-05-08 02:21 -34.65294 -56.37344 7072 ft 296 kts 88°
2026-05-08 02:21 -34.65269 -56.34875 6704 ft 294 kts 88°
2026-05-08 02:21 -34.65246 -56.32385 6317 ft 293 kts 88°
2026-05-08 02:22 -34.65225 -56.29912 5921 ft 293 kts 88°
2026-05-08 02:22 -34.65200 -56.27445 5532 ft 292 kts 88°
2026-05-08 02:22 -34.65175 -56.24998 5144 ft 292 kts 88°
2026-05-08 02:22 -34.65149 -56.22536 4774 ft 291 kts 88°
2026-05-08 02:23 -34.65123 -56.20078 4368 ft 291 kts 89°
2026-05-08 02:23 -34.65096 -56.17645 4022 ft 289 kts 88°
2026-05-08 02:23 -34.65070 -56.15222 3649 ft 289 kts 89°
2026-05-08 02:23 -34.65044 -56.12791 3296 ft 287 kts 89°
2026-05-08 02:24 -34.65017 -56.10418 3109 ft 279 kts 89°
2026-05-08 02:24 -34.64993 -56.08110 3045 ft 265 kts 89°
2026-05-08 02:24 -34.64969 -56.05938 3031 ft 251 kts 89°
2026-05-08 02:24 -34.64946 -56.03863 3029 ft 245 kts 88°
2026-05-08 02:25 -34.64919 -56.01781 3036 ft 245 kts 88°
2026-05-08 02:25 -34.64893 -55.99723 3031 ft 243 kts 88°
2026-05-08 02:25 -34.64867 -55.97668 3031 ft 244 kts 88°
2026-05-08 02:25 -34.64841 -55.95621 3028 ft 245 kts 88°
2026-05-08 02:26 -34.64859 -55.93560 3033 ft 246 kts 99°
2026-05-08 02:26 -34.65476 -55.91647 3023 ft 236 kts 131°
2026-05-08 02:26 -34.66600 -55.90366 3075 ft 211 kts 149°
2026-05-08 02:26 -34.67750 -55.89396 3058 ft 191 kts 153°
2026-05-08 02:27 -34.68813 -55.88538 3027 ft 182 kts 153°
2026-05-08 02:27 -34.69868 -55.87665 3056 ft 182 kts 152°
2026-05-08 02:27 -34.70898 -55.86783 3041 ft 183 kts 151°
2026-05-08 02:27 -34.71968 -55.85963 3030 ft 176 kts 169°
2026-05-08 02:28 -34.73096 -55.86009 3020 ft 154 kts 214°
2026-05-08 02:28 -34.73892 -55.86814 2986 ft 148 kts 235°
2026-05-08 02:28 -34.74541 -55.87788 2789 ft 145 kts 238°
2026-05-08 02:28 -34.75119 -55.88721 2578 ft 133 kts 239°
2026-05-08 02:29 -34.75660 -55.89610 2408 ft 132 kts 242°
2026-05-08 02:29 -34.76206 -55.90521 2247 ft 135 kts 240°
2026-05-08 02:29 -34.76760 -55.91436 2096 ft 135 kts 240°
2026-05-08 02:29 -34.77320 -55.92360 1915 ft 135 kts 240°
2026-05-08 02:30 -34.77886 -55.93288 1729 ft 135 kts 240°
2026-05-08 02:30 -34.78442 -55.94202 1543 ft 134 kts 240°
2026-05-08 02:30 -34.78983 -55.95089 1343 ft 129 kts 240°
2026-05-08 02:30 -34.79526 -55.95984 1174 ft 131 kts 239°
2026-05-08 02:31 -34.80065 -55.96871 1000 ft 131 kts 239°
2026-05-08 02:31 -34.80610 -55.97772 830 ft 133 kts 238°
2026-05-08 02:31 -34.81166 -55.98683 651 ft 132 kts 238°
2026-05-08 02:31 -34.81706 -55.99568 475 ft 132 kts 237°
2026-05-08 02:32 -34.82250 -56.00468 316 ft 132 kts 237°
2026-05-08 02:32 -34.82796 -56.01378 128 ft 132 kts 237°
2026-05-08 02:32 -34.83317 -56.02237 77 ft 110 kts 232°
2026-05-08 02:32 -34.83672 -56.02810 71 ft 44 kts 226°
2026-05-08 02:33 -34.83754 -56.02941 66 ft 17 kts 235°
2026-05-08 02:33 -34.83823 -56.03061 64 ft 17 kts 235°
2026-05-08 02:33 -34.83892 -56.03175 62 ft 16 kts 236°
2026-05-08 02:33 -34.83961 -56.03302 59 ft 18 kts 233°
2026-05-08 02:34 -34.84043 -56.03434 54 ft 21 kts 234°
2026-05-08 02:34 -34.84138 -56.03579 50 ft 22 kts 231°
2026-05-08 02:34 -34.84240 -56.03628 47 ft 17 kts 92°
2026-05-08 02:34 -34.84199 -56.03498 51 ft 15 kts 64°
2026-05-08 02:35 -34.84148 -56.03384 52 ft 15 kts 60°
2026-05-08 02:35 -34.84100 -56.03277 55 ft 13 kts 60°
2026-05-08 02:35 -34.84058 -56.03185 57 ft 9 kts 62°
2026-05-08 02:35 -34.84051 -56.03168 57 ft 0 kts 62°
2026-05-08 02:36 -34.84043 -56.03150 57 ft 5 kts 64°
2026-05-08 02:36 -34.84021 -56.03088 58 ft 10 kts 71°
2026-05-08 02:36 -34.84011 -56.02989 61 ft 14 kts 90°
2026-05-08 02:36 -34.84012 -56.02851 61 ft 17 kts 91°
2026-05-08 02:37 -34.83963 -56.02699 62 ft 21 kts 67°
2026-05-08 02:37 -34.83945 -56.02507 63 ft 25 kts 91°
2026-05-08 02:37 -34.83949 -56.02301 63 ft 19 kts 89°
2026-05-08 02:37 -34.83848 -56.02246 67 ft 18 kts
2026-05-08 02:38 -34.83736 -56.02166 71 ft 20 kts 53°
2026-05-08 02:38 -34.83645 -56.02018 75 ft 23 kts 55°
2026-05-08 02:38 -34.83609 -56.01951 75 ft 4 kts 68°
2026-05-08 02:38 -34.83630 -56.01915 75 ft 7 kts 113°
2026-05-08 02:39 -34.83672 -56.01865 74 ft 4 kts 144°
2026-05-08 02:39 -34.83675 -56.01862 74 ft 0 kts 144°